Date,TemperatureHighF,TemperatureAvgF,TemperatureLowF,DewpointHighF,DewpointAvgF,DewpointLowF,HumidityHigh,HumidityAvg,HumidityLow,PressureMaxIn,PressureMinIn,WindSpeedMaxMPH,WindSpeedAvgMPH,GustSpeedMaxMPH,PrecipitationSumIn
2013-1-1,44.1,24.8,17.8,43.8,20.0,12.1,99,82,76,29.95,29.77,6,0,6,0.01
2013-1-2,33.8,21.2,12.6,13.4,10.2,7.6,86,63,41,30.00,29.93,6,1,6,0.00
2013-1-3,39.0,30.4,16.0,26.3,21.6,9.7,79,70,60,30.10,29.93,14,7,14,0.02
2013-1-4,32.5,26.8,23.0,23.2,21.9,20.3,92,82,64,30.16,30.06,8,6,8,0.00
2013-1-5,37.8,32.0,25.0,25.9,24.5,22.6,92,74,62,30.06,30.02,17,8,17,0.00
2013-1-6,80.8,32.9,26.6,69.3,12.9,-22.5,74,53,10,30.11,29.85,19,7,19,0.09
2013-1-10,60.4,57.4,54.1,60.2,57.1,53.9,99,99,99,29.70,29.58,18,7,18,0.09
2013-1-11,63.1,58.8,54.3,60.9,51.7,48.0,99,78,63,29.67,29.56,18,11,20,0.33
2013-1-12,72.0,59.6,52.3,60.0,56.6,12.5,99,91,10,29.69,29.34,102,6,102,0.66
2013-1-13,33.3,26.2,23.9,30.5,23.0,-17.6,99,89,10,29.99,29.69,49,1,49,1.32
2013-1-14,25.0,22.7,18.5,20.7,19.2,15.0,92,86,77,30.17,30.02,0,0,0,0.00
2013-1-15,36.0,22.2,20.5,32.2,20.2,-26.6,95,92,10,30.08,29.83,0,0,0,0.00
2013-1-16,34.5,31.5,25.7,26.4,24.2,-18.9,82,75,10,29.84,29.76,9,6,9,0.01
2013-1-17,39.7,32.9,29.1,27.0,25.0,23.4,79,73,60,30.17,30.00,12,5,12,0.00
2013-1-18,45.3,40.8,39.4,28.5,26.5,25.1,59,56,51,30.05,29.91,20,11,20,0.00
2013-1-19,57.6,49.5,38.8,38.6,33.8,-8.0,76,57,10,29.93,29.66,32,16,34,0.76
2013-1-20,45.7,45.3,44.6,37.9,37.2,35.9,74,73,70,29.80,29.78,12,9,12,0.00
2013-1-21,25.7,20.9,16.2,16.3,7.7,-0.6,67,56,46,30.06,29.97,17,8,17,0.00
2013-1-22,14.5,13.0,11.1,1.7,-1.2,-2.8,57,52,49,30.13,30.06,32,8,32,0.00
2013-1-23,80.4,34.7,15.3,63.3,20.6,11.0,83,57,39,30.05,29.84,14,8,14,0.00
2013-1-24,31.6,22.7,16.2,17.3,8.7,5.7,66,55,36,30.30,29.98,15,10,15,0.38
2013-1-25,39.2,32.7,31.6,23.2,21.7,20.1,69,64,46,29.91,29.83,13,9,14,0.00
2013-1-26,39.6,29.8,23.0,22.8,17.8,-18.7,75,61,10,30.09,29.91,10,3,10,0.00
2013-1-27,45.0,33.6,14.4,43.8,29.8,9.0,99,86,70,30.05,29.77,19,7,19,0.22
2013-1-28,57.9,54.9,34.5,57.7,54.1,34.3,99,97,77,29.79,29.69,21,8,21,0.20
2013-1-29,68.0,62.7,56.3,60.5,58.3,56.0,99,86,75,29.69,29.11,59,23,103,11.74
2013-1-30,51.6,36.5,29.7,51.3,29.5,18.0,99,76,61,29.56,29.13,35,22,35,0.13
2013-1-31,34.0,25.9,15.1,29.5,17.7,8.1,98,71,57,30.00,29.57,74,17,74,0.00